Temp
10 10 10 10 10 10 10 10 10 9 9 9 9 8 8 7 7 7 6 6 6 6 6 6 5 6 5 5 5 6 6 6
10 10 10 9 9 10 10 9 9 9 9 9 9 8 8 7 7 7 6 6 6 6 6 5 5 5 5 5 5 5 5 5
10 10 9 9 9 9 9 9 9 9 9 9 9 8 8 8 7 7 6 6 6 6 5 5 5 5 5 5 5 4 4 4
9 9 9 9 9 9 9 9 9 9 9 9 8 8 8 8 7 7 6 6 6 6 5 5 5 5 5 4 4 4 4 4
9 9 9 9 9 8 8 8 8 8 8 8 8 8 8 8 8 7 7 6 6 6 5 5 5 4 4 4 4 4 4 4
8 9 9 9 8 8 8 8 8 8 8 8 8 8 8 8 8 7 7 6 6 5 5 5 5 5 4 4 4 3 3 3
7 8 8 8 8 8 7 7 7 7 7 7 7 7 8 7 7 7 7 7 6 6 5 5 5 5 4 4 4 3 3 3
7 7 7 7 7 7 7 7 7 7 7 7 7 7 7 7 7 7 7 7 6 6 6 5 5 5 4 4 4 3 3 2
6 6 6 7 7 7 7 6 6 7 7 7 6 7 7 7 7 7 7 7 6 6 6 5 5 5 4 4 4 3 3 2
5 6 6 6 7 6 5 6 6 6 6 7 6 6 6 6 7 7 7 6 6 6 5 5 5 5 4 4 4 3 3 2
6 6 6 6 6 6 5 6 6 6 6 6 7 6 6 6 6 6 6 6 6 6 6 5 5 5 4 4 4 4 3 2
6 6 6 6 6 6 6 6 6 6 6 6 6 6 6 6 6 6 6 6 6 6 6 5 5 4 4 4 4 4 3 3
5 5 5 5 6 6 6 6 6 6 6 6 6 6 6 6 6 6 6 6 6 6 6 5 5 4 4 4 4 4 4 3
3 4 5 5 5 6 6 6 6 6 6 6 6 6 6 6 6 6 6 6 6 6 6 5 5 5 4 4 4 4 4 4
2 3 4 4 4 4 5 5 6 6 6 6 6 6 6 6 6 5 5 5 5 5 5 5 5 4 4 4 4 4 4 4
1 2 3 3 4 4 4 5 6 7 6 6 6 6 5 6 5 5 5 5 5 5 5 5 4 4 4 4 4 3 3 4
1 1 2 3 4 4 4 5 6 6 6 6 6 6 5 5 5 5 5 5 5 5 5 5 5 4 4 4 4 3 3 4
0 1 2 3 3 4 4 5 5 6 6 6 6 5 5 5 5 5 4 5 4 5 5 5 4 4 4 4 4 4 4 2
0 1 2 3 3 4 5 5 5 6 6 5 6 5 5 5 5 5 4 5 5 4 4 4 4 4 4 4 4 4 3 2
-1 1 2 3 4 4 5 5 5 6 6 6 6 6 6 5 5 4 4 4 4 4 4 5 4 4 4 4 4 4 3 2
Height
3145 3147 3149 3150 3150 3151 3151 3152 3153 3154 3154 3153 3153 3154 3154 3155 3156 3157 3158 3159 3161 3163 3164 3165 3167 3168 3168 3169 3170 3170 3170 3171
3141 3144 3146 3147 3148 3148 3149 3150 3151 3152 3153 3152 3153 3153 3153 3153 3154 3155 3157 3158 3160 3162 3163 3164 3165 3167 3167 3168 3168 3169 3169 3169
3135 3139 3142 3144 3145 3146 3147 3148 3148 3150 3151 3151 3151 3152 3152 3152 3153 3154 3155 3157 3158 3160 3161 3163 3164 3165 3165 3166 3167 3167 3167 3168
3130 3133 3137 3139 3140 3142 3144 3145 3146 3147 3148 3149 3150 3150 3151 3151 3151 3152 3153 3154 3156 3157 3159 3161 3162 3162 3163 3164 3164 3165 3165 3166
3126 3129 3131 3133 3135 3137 3139 3142 3144 3146 3146 3147 3148 3148 3149 3149 3149 3150 3151 3152 3153 3155 3156 3158 3159 3160 3160 3161 3162 3163 3163 3164
3121 3123 3125 3128 3130 3132 3135 3138 3140 3142 3144 3145 3146 3146 3147 3147 3147 3148 3148 3149 3150 3152 3154 3155 3156 3157 3157 3158 3159 3159 3160 3161
3114 3117 3120 3122 3124 3126 3129 3132 3135 3138 3139 3141 3143 3144 3144 3145 3145 3145 3146 3147 3148 3149 3150 3152 3153 3154 3154 3155 3155 3156 3157 3157
3106 3109 3112 3114 3116 3119 3123 3126 3129 3131 3133 3136 3138 3140 3141 3142 3143 3143 3143 3144 3145 3146 3147 3149 3149 3150 3151 3151 3151 3152 3152 3153
3096 3100 3103 3105 3109 3113 3116 3119 3121 3123 3125 3129 3131 3134 3136 3138 3139 3140 3140 3140 3142 3142 3144 3145 3145 3147 3147 3147 3147 3147 3147 3147
3090 3091 3092 3095 3100 3104 3108 3110 3113 3115 3117 3121 3123 3126 3129 3132 3133 3135 3136 3137 3137 3139 3140 3141 3142 3143 3142 3142 3143 3142 3142 3142
3081 3083 3084 3086 3090 3094 3097 3101 3103 3107 3110 3113 3116 3118 3121 3124 3127 3129 3131 3132 3133 3134 3135 3136 3137 3137 3138 3138 3138 3137 3136 3136
3069 3072 3073 3076 3080 3083 3085 3090 3094 3098 3101 3104 3108 3110 3112 3115 3119 3123 3125 3127 3128 3129 3130 3131 3132 3132 3132 3133 3132 3132 3131 3130
3056 3058 3062 3063 3067 3070 3073 3078 3085 3088 3092 3096 3099 3102 3105 3108 3111 3115 3118 3120 3122 3124 3125 3126 3126 3127 3128 3127 3127 3126 3125 3123
3041 3044 3050 3051 3053 3057 3061 3068 3074 3080 3084 3086 3091 3095 3098 3101 3102 3106 3110 3112 3115 3117 3118 3120 3120 3121 3121 3121 3120 3120 3119 3119
3027 3030 3035 3039 3043 3046 3048 3053 3059 3062 3067 3076 3081 3086 3089 3091 3095 3096 3101 3104 3107 3110 3111 3113 3114 3115 3115 3116 3114 3113 3113 3114
3012 3016 3021 3027 3032 3033 3036 3041 3045 3049 3058 3066 3071 3076 3079 3083 3087 3090 3092 3096 3098 3102 3104 3105 3106 3109 3108 3109 3108 3108 3107 3105
2997 3002 3009 3015 3019 3023 3027 3030 3033 3039 3048 3055 3059 3066 3070 3074 3078 3081 3083 3087 3091 3093 3095 3096 3099 3100 3102 3102 3103 3101 3100 3099
2984 2987 2995 3001 3007 3012 3017 3021 3025 3030 3035 3042 3048 3055 3060 3064 3068 3071 3076 3079 3083 3085 3086 3087 3090 3092 3093 3094 3095 3095 3094 3093
2970 2972 2978 2987 2995 3001 3007 3012 3016 3020 3026 3031 3039 3044 3050 3055 3059 3062 3067 3072 3075 3077 3078 3079 3081 3083 3085 3086 3087 3087 3087 3088
2961 2962 2966 2974 2982 2990 2997 3004 3008 3012 3017 3023 3030 3036 3042 3047 3051 3055 3059 3064 3067 3069 3070 3070 3072 3075 3077 3078 3078 3079 3079 3079
Wind_Speed
19 21 16 13 10 8 8 9 7 5 3 3 5 6 5 5 7 8 9 10 10 10 9 8 7 6 7 5 3 3 4 5
25 23 19 15 14 13 12 12 10 8 5 4 5 6 6 6 7 9 10 11 11 10 9 8 7 7 8 7 5 4 4 5
29 29 21 18 17 16 15 16 13 11 8 6 5 5 6 6 7 8 10 12 12 11 9 9 9 8 8 9 8 7 4 6
33 32 27 23 21 22 20 19 17 14 11 8 7 7 6 6 8 8 10 12 12 11 11 11 10 10 10 11 11 9 7 9
33 32 31 29 27 25 23 21 19 18 15 11 10 9 8 7 8 8 8 11 11 11 11 11 10 11 11 12 13 12 13 14
34 34 34 31 30 28 25 23 21 19 19 16 13 12 11 9 9 8 8 9 10 11 11 11 12 13 14 14 16 16 16 13
34 35 35 34 35 32 29 27 25 23 22 21 19 17 14 13 12 11 10 9 10 10 10 10 11 12 13 15 17 18 18 18
34 33 36 37 37 36 33 30 28 28 27 26 24 23 20 17 16 15 13 12 11 11 10 11 11 12 12 13 17 19 20 22
42 41 40 39 38 36 35 33 30 29 29 29 30 30 27 24 20 19 17 15 14 14 13 12 12 12 12 12 15 19 22 23
40 42 41 44 44 40 39 35 33 32 30 28 29 33 33 30 26 23 22 19 18 17 16 15 15 15 13 13 16 18 22 25
47 45 46 42 48 47 45 42 41 37 32 28 27 27 34 35 32 27 25 24 23 21 20 20 19 19 17 17 18 20 21 26
51 52 51 49 46 48 51 48 47 42 39 36 33 28 28 38 37 34 30 28 28 26 25 24 22 22 21 21 23 23 21 23
50 51 51 47 53 54 53 52 50 49 45 39 36 31 30 34 39 38 36 34 31 30 29 28 26 25 25 26 26 24 24 23
47 48 48 48 46 49 54 56 51 51 48 46 40 35 31 32 37 42 41 38 36 35 34 32 30 27 27 27 30 27 26 27
45 45 47 47 46 44 46 57 59 56 55 48 44 39 36 38 38 39 42 41 40 38 36 34 33 29 28 29 31 30 27 28
42 45 40 43 45 43 43 46 58 63 57 51 47 44 42 40 39 39 37 41 43 41 40 39 36 32 31 29 32 32 32 34
43 38 44 42 42 43 40 37 47 57 59 54 48 41 40 39 41 40 38 36 37 36 39 39 38 34 31 31 31 35 33 35
38 41 46 45 40 39 40 36 32 40 46 49 50 44 42 39 38 40 36 32 31 27 31 37 37 36 32 32 34 34 35 33
34 39 44 48 41 39 38 34 33 32 35 41 46 38 39 38 39 39 38 31 32 28 27 33 37 36 35 34 35 34 35 32
26 28 36 40 42 38 37 36 34 33 35 36 38 37 38 38 37 38 37 32 33 32 33 34 38 38 37 38 37 36 35 36
Wind_Direction
224 216 222 235 232 230 239 233 247 256 267 280 295 292 282 267 251 242 246 248 243 238 241 240 243 241 241 241 261 305 316 296
216 217 227 238 229 225 231 231 240 240 249 262 282 288 282 259 244 243 247 253 244 247 246 247 251 251 244 243 259 283 301 291
213 216 228 235 239 234 232 233 234 235 245 248 260 279 281 264 248 244 245 247 250 252 251 247 256 251 243 239 250 273 291 275
218 218 227 234 237 232 231 235 234 232 232 243 252 258 262 257 248 243 240 241 243 249 252 252 253 257 248 243 245 255 256 272
225 224 229 233 237 232 235 238 242 242 240 239 243 246 249 253 254 248 244 241 242 246 251 257 261 260 259 251 254 260 259 272
226 227 229 237 237 235 237 241 248 249 252 254 254 253 250 243 247 244 238 237 235 241 245 247 255 255 260 250 250 256 259 260
230 233 232 236 238 236 237 241 248 252 253 255 258 258 254 246 237 235 229 222 223 230 236 240 252 253 251 258 261 257 260 256
232 234 231 235 238 240 240 242 246 248 250 252 253 257 257 249 243 231 222 221 216 220 227 234 249 262 258 263 260 259 260 264
227 232 234 231 235 237 237 240 239 240 245 249 252 251 251 250 245 240 227 220 222 224 232 242 250 265 270 271 277 266 260 259
233 233 234 236 231 236 239 238 242 241 237 242 246 247 246 247 244 240 236 228 228 235 241 248 250 261 266 273 279 273 265 259
231 234 238 235 232 239 242 241 237 238 239 237 239 246 242 241 244 240 238 237 237 240 245 248 249 257 262 269 272 276 268 261
243 239 238 240 239 238 237 240 238 235 236 237 238 243 246 238 239 241 240 239 242 247 247 246 249 252 258 268 271 278 278 267
252 247 242 241 239 236 239 239 237 236 233 237 240 241 244 241 237 240 240 241 245 252 251 249 250 253 259 270 278 279 287 283
251 249 243 238 234 237 235 236 239 239 239 239 240 240 239 241 240 240 241 241 243 248 253 255 255 256 262 271 276 280 290 297
244 238 234 229 232 230 235 233 230 233 233 236 240 237 241 239 244 239 240 242 243 246 251 254 258 259 263 268 273 280 288 290
245 243 233 231 233 235 236 242 235 236 234 235 238 241 235 238 242 241 239 242 243 245 249 251 253 257 261 264 272 277 280 288
253 246 233 229 233 236 238 243 239 236 235 233 237 234 233 240 240 237 237 242 244 246 249 250 250 253 258 266 267 271 277 287
250 239 233 230 230 234 236 238 237 239 237 234 231 229 234 236 238 234 234 237 235 251 251 249 244 248 255 262 266 270 277 284
251 235 229 229 227 228 231 232 232 230 232 227 225 227 232 236 236 234 232 237 238 248 257 250 244 247 254 261 266 270 273 273
266 237 222 221 222 220 221 226 227 224 220 220 223 227 233 235 238 229 231 235 239 248 257 255 245 247 253 259 267 269 274 272